FW2284 Weather Reports


Display with metric or nautical units.
time (UTC)temp
F
wind
direction
speed
MPH
gust
MPH
rain 1hr
in
rain 24hr
in
rain mn
in
humidity
%
barometer
mb
20260905094523 79 195 1.0 3.0 0.00 0.00 0.00 79 1012.0
20260905093022 79 216 1.0 3.0 0.00 0.00 0.00 79 1012.1
20260905091521 79 167 1.0 3.0 0.00 0.00 0.00 79 1012.1
20260905090028 79 205 1.0 3.0 0.00 0.00 0.00 78 1012.2
20260905084518 79 167 1.0 3.0 0.00 0.00 0.00 79 1012.1
20260905083017 80 194 0.0 2.0 0.00 0.00 0.00 78 1012.3
20260905081516 80 162 0.0 3.0 0.00 0.00 0.00 77 1012.4
20260905080018 80 142 0.0 3.0 0.00 0.00 0.00 77 1012.6
20260905074515 80 210 0.0 3.0 0.00 0.00 0.00 77 1012.6
20260905073014 80 221 0.0 1.0 0.00 0.00 0.00 77 1012.6
20260905071513 80 216 0.0 1.0 0.00 0.00 0.00 78 1012.6
20260905070012 79 207 0.0 3.0 0.00 0.00 0.00 80 1012.5
20260905064511 80 208 0.0 0.0 0.00 0.00 0.00 79 1012.7
20260905063010 80 208 0.0 0.0 0.00 0.00 0.00 77 1012.8
20260905061508 80 191 0.0 0.0 0.00 0.00 0.00 79 1012.8
20260905060007 80 210 0.0 2.0 0.00 0.00 0.00 78 1012.9
20260905054506 81 215 0.0 2.0 0.00 0.00 0.00 75 1012.9
20260905053008 80 191 0.0 1.0 0.00 0.00 0.00 76 1012.9
20260905051502 81 200 0.0 1.0 0.00 0.00 0.00 76 1012.9
20260905044602 81 210 0.0 1.0 0.00 0.00 0.00 74 1012.7
20260905043101 81 219 0.0 2.0 0.00 0.00 0.00 75 1012.7
20260905041559 80 223 0.0 0.0 0.00 0.00 0.00 78 1012.9
20260905040100 79 186 0.0 0.0 0.00 0.00 0.00 82 1012.8
20260905034602 78 181 0.0 0.0 0.00 0.00 0.00 82 1012.8
20260905033057 79 181 0.0 0.0 0.00 0.00 0.00 81 1012.8
20260905031556 79 181 0.0 0.0 0.00 0.00 0.00 80 1012.8
20260905030105 79 181 0.0 0.0 0.00 0.00 0.00 79 1012.7
20260905024556 80 181 0.0 0.0 0.00 0.00 0.00 79 1012.6
20260905023056 81 205 0.0 0.0 0.00 0.00 0.00 76 1012.6
20260905021555 81 205 0.0 0.0 0.00 0.00 0.00 75 1012.4
20260905020107 82 205 0.0 0.0 0.00 0.00 0.00 72 1012.2
20260905014555 83 205 0.0 0.0 0.00 0.00 0.00 70 1012.1
20260905013103 84 205 0.0 0.0 0.00 0.00 0.00 67 1011.8
20260905011627 86 205 0.0 0.0 0.00 0.00 0.00 63 1011.7
20260905010052 87 205 0.0 0.0 0.00 0.00 0.00 62 1011.7
20260905004552 87 205 0.0 0.0 0.00 0.00 0.00 60 1011.7
20260905003052 90 205 0.0 0.0 0.00 0.00 0.00 57 1011.7
20260905001557 93 204 0.0 0.0 0.00 0.00 0.00 52 1011.7
20260905000049 96 245 0.0 0.0 0.00 0.00 0.00 47 1011.6
20260904234548 97 248 0.0 2.0 0.00 0.00 0.00 46 1011.4
20260904233047 97 240 0.0 3.0 0.00 0.00 0.00 46 1011.4
20260904231546 98 198 0.0 4.0 0.00 0.00 0.00 47 1011.5
20260904230046 97 235 1.0 5.0 0.00 0.00 0.00 45 1011.5
20260904224547 97 221 3.0 5.0 0.00 0.00 0.00 44 1011.6
20260904223045 98 136 4.0 6.0 0.00 0.00 0.00 44 1011.7
20260904221542 98 196 2.0 8.0 0.00 0.00 0.00 45 1011.6
20260904220040 98 256 2.0 7.0 0.00 0.00 0.00 43 1011.7
20260904214539 99 205 2.0 6.0 0.00 0.00 0.00 43 1011.9
20260904213038 99 184 2.0 6.0 0.00 0.00 0.00 42 1012.1
20260904211535 98 146 2.0 8.0 0.00 0.00 0.00 41 1012.2
20260904210035 98 150 3.0 7.0 0.00 0.00 0.00 42 1012.5
20260904204534 98 238 2.0 8.0 0.00 0.00 0.00 43 1012.8
20260904203035 98 212 3.0 9.0 0.00 0.00 0.00 43 1012.8
20260904201532 98 239 5.0 8.0 0.00 0.00 0.00 43 1013.0
20260904200032 98 159 6.0 11.0 0.00 0.00 0.00 43 1013.1
20260904194534 98 221 4.0 9.0 0.00 0.00 0.00 45 1013.2
20260904193032 99 195 4.0 9.0 0.00 0.00 0.00 41 1013.4
20260904191529 98 196 3.0 7.0 0.00 0.00 0.00 43 1013.5
20260904190025 97 95 3.0 5.0 0.00 0.00 0.00 45 1013.5
20260904184531 97 297 3.0 6.0 0.00 0.00 0.00 44 1013.7
20260904183024 97 53 2.0 5.0 0.00 0.00 0.00 45 1013.7
20260904181541 96 324 0.0 4.0 0.00 0.00 0.00 46 1014.1
20260904180022 96 198 1.0 7.0 0.00 0.00 0.00 48 1014.1
20260904174521 96 293 4.0 8.0 0.00 0.00 0.00 46 1014.2
20260904173023 96 318 5.0 8.0 0.00 0.00 0.00 46 1014.4
20260904171517 95 278 4.0 8.0 0.00 0.00 0.00 48 1014.5
20260904170016 95 321 2.0 9.0 0.00 0.00 0.00 46 1014.7
20260904164514 94 254 6.0 10.0 0.00 0.00 0.00 49 1014.7
20260904163012 94 281 3.0 12.0 0.00 0.00 0.00 51 1014.8
20260904161508 93 274 3.0 9.0 0.00 0.00 0.00 51 1014.7
20260904160006 92 265 2.0 12.0 0.00 0.00 0.00 54 1014.9
20260904154504 92 307 3.0 8.0 0.00 0.00 0.00 56 1014.9
20260904153101 91 306 3.0 8.0 0.00 0.00 0.00 58 1014.9
20260904151559 89 281 3.0 8.0 0.00 0.00 0.00 61 1014.7
20260904150055 89 170 3.0 9.0 0.00 0.00 0.00 61 1014.6
20260904144554 88 201 4.0 7.0 0.00 0.00 0.00 62 1014.5
20260904143053 87 278 3.0 8.0 0.00 0.00 0.00 65 1014.4
20260904141546 85 220 3.0 7.0 0.00 0.00 0.00 67 1014.3
20260904140046 85 250 3.0 6.0 0.00 0.00 0.00 68 1014.3
20260904134545 84 253 1.0 6.0 0.00 0.00 0.00 69 1014.3
20260904133037 83 220 3.0 6.0 0.00 0.00 0.00 70 1014.5
20260904131539 82 180 3.0 6.0 0.00 0.00 0.00 71 1014.4
20260904130036 81 199 2.0 5.0 0.00 0.00 0.00 73 1014.4
20260904124534 80 231 1.0 4.0 0.00 0.00 0.00 75 1014.3
20260904123034 79 153 1.0 3.0 0.00 0.00 0.00 77 1014.0
20260904121531 77 198 0.0 3.0 0.00 0.00 0.00 80 1014.0
20260904120036 75 184 0.0 3.0 0.00 0.00 0.00 82 1014.0
20260904114537 75 186 1.0 2.0 0.00 0.00 0.00 82 1014.0
20260904113138 75 205 0.0 0.0 0.00 0.00 0.00 81 1013.8
20260904111600 76 205 0.0 2.0 0.00 0.00 0.00 80 1013.6
20260904110056 76 203 0.0 2.0 0.00 0.00 0.00 80 1013.5
20260904104557 76 210 0.0 2.0 0.00 0.00 0.00 79 1013.4
20260904103048 77 206 0.0 2.0 0.00 0.00 0.00 78 1013.3
20260904101547 77 234 0.0 3.0 0.00 0.00 0.00 77 1013.3
20260904100045 77 209 1.0 3.0 0.00 0.00 0.00 77 1013.3